Location: Unspecified
(57.6483°N, 3.3184°W)
Time: 19:39:42
(UTC+01:00)

N. Korean satellite - Pass Details

Date: 26 February 2021
Orbit: 452 x 499 km, 97.2° (Epoch: 20 April)

Event Time Altitude Azimuth Distance (km) Brightness Sun altitude
Rises 06:00:37 0° 14° (NNE) 2,500 10.4 -10.7°
Reaches altitude 10° 06:02:39 10° 15° (NNE) 1,626 9.4 -10.4°
Maximum altitude 06:06:08 89° 297° (WNW) 476 6.5 -9.9°
Drops below altitude 10° 06:09:40 10° 197° (SSW) 1,637 9.1 -9.5°
Sets 06:11:43 0° 197° (SSW) 2,519 10.0 -9.2°
